Current weather by "City, St" or "zip code"  
 
Advertise Here

Current Conditions: St. Louis Regional Airport, IL

Light Rain


35.0 F

Last Updated on Jan 25 2021, 2:55 am CST
Humidity: 100%
Wind Speed: E 8.1 mph
Barometer 29.98 in
Dewpoint: 34.5 F
Visibility: 7.00 mi
Precip: --
Heat Index: NA
Wind Chill: 28 F
Current conditions at:

St. Louis Regional Airport, IL (KALN)

Lat: 38.88968 Lon: 90.03163

Local Radar Image active severe weather and emergency alerts image image weather storm and storm spotter reports image weather observation monitoring service image
Local
Radar
Active
Alerts
Storm Reports Obs
Monitoring

Sign-up For Email & Text Message Weather Alert Notification Services


Advertise Here

Observation History for St. Louis Regional Airport, IL


Time Wind
(mph)
Vis
(mi)
Weather Precip (in) Temperature (F) Relative
Humidity
Wind
Chill
(F)
Heat
Index
(F)
Pressure
Air Dwpt altimeter
(in)
sea level
(mb)
Rmks
2:55 am CST E 8.1 7.00 Light Rain -- 35.0 34.5 100% 28 NA 29.98 M
1:55 am CST NE 4.6 10.00 Overcast -- 35.0 34.2 96% 31 NA 30.03 M
1:35 am CST E 8.1 10.00 Overcast -- 35.0 34.7 97% 28 NA 30.02 M
12:55 am CST NE 3.5 10.00 Overcast -- 36.0 34.5 96% NA NA 30.03 M
11:55 pm CST E 4.6 10.00 Overcast -- 36.0 34.3 95% 32 NA 30.03 M
11:35 pm CST NE 5.8 10.00 Overcast -- 36.0 34.3 95% 31 NA 30.04 M
10:55 pm CST NE 3.5 10.00 Overcast -- 35.0 34.0 96% NA NA 30.05 M
10:35 pm CST E 4.6 10.00 Overcast -- 35.0 34.2 98% 31 NA 30.03 M
9:51 pm CST N 0.0 10.00 Overcast -- 32.0 32.0 100% NA NA 30.05 M
8:50 pm CST N 0.0 10.00 Fair -- 32.0 32.0 100% NA NA 30.04 M
7:47 pm CST N 0.0 10.00 Mostly Cloudy -- 32.0 32.0 100% NA NA 30.06 M
6:45 pm CST NE 4.6 10.00 Mostly Cloudy -- 37.0 33.8 87% 33 NA 30.06 M
5:48 pm CST E 3.5 10.00 Overcast -- 39.0 33.8 81% NA NA 30.06 M
4:48 pm CST NE 3.5 10.00 Overcast -- 39.0 33.8 81% NA NA 30.05 M
3:50 pm CST NE 3.5 10.00 Overcast -- 39.0 33.8 81% NA NA 30.03 M
2:50 pm CST N 5.8 10.00 Overcast -- 41.0 33.8 76% 37 NA 30.04 M
1:50 pm CST N 4.6 10.00 Overcast -- 39.0 33.8 81% 36 NA 30.01 M
12:50 pm CST 4.6 10.00 Overcast -- 39.0 33.8 81% 36 NA 30.04 M
11:50 am CST N 0.0 10.00 Overcast -- 37.0 32.0 81% NA NA 30.05 M
10:50 am CST 3.5 10.00 Overcast -- 37.0 32.0 81% NA NA 30.07 M
9:50 am CST SE 5.8 8.00 Overcast -- 36.0 32.0 87% 31 NA 30.07 M
8:50 am CST SE 6.9 8.00 Overcast -- 34.0 32.0 93% 28 NA 30.06 M
7:50 am CST SE 6.9 10.00 Overcast -- 32.0 30.2 93% 26 NA 30.05 M
6:50 am CST SE 9.2 10.00 Overcast -- 32.0 30.2 93% 24 NA 30.05 M

Regional Weather Observation


St. Charles, St. Charles County Smartt Airport, MO (KSET)

Light Snow
37.0 F

St. Louis Lambert International Airport, MO (KSTL)

Light Rain
36.0 F

Litchfield Municipal Airport, IL (K3LF)

Overcast
33.0 F

St. Louis Downtown Airport, IL (KCPS)

Light Rain
36.0 F

St. Louis, Spirit Of St. Louis Airport, MO (KSUS)

Light Rain Fog/Mist
36.0 F

Jacksonville Municipal Airport, IL (KIJX)

Overcast
32.0 F